#timestamp,LO_Frequency,Hit,StdDev 
1549087215.5,286046994.9,N
1549087235.4,286046995.6,N
1549087255.2,286046996.4,N
1549087275.0,286046997.8,N
1549087275.9,286046997.8,N
1549087295.8,286046995.3,N
1549087315.6,286046997.1,N
1549087335.4,286046996.7,N
1549087355.3,286046997.6,N
1549087375.1,286046999.4,N
1549087395.9,286047001.2,N
1549087415.7,286046998.9,N
1549087435.5,286046999.9,N
1549087455.4,286047000.4,N
1549087475.2,286047000.6,N
1549087495.0,286047000.5,N
1549087495.9,286047000.5,N
1549087515.8,286047001.2,N
1549087535.6,286046998.3,N
1549087555.5,286046998.1,N
1549087575.3,286047001.2,N
1549087595.1,286047001.2,N
1549087615.9,286047000.7,N
1549087635.7,286046998.2,N
1549087655.5,286046997.6,N
1549087675.4,286046997.2,N
1549087695.2,286046995.0,N
1549087715.1,286046997.3,N
1549087716.0,286046997.3,N
1549087735.8,286046998.6,N
1549087755.6,286046999.9,N
1549087775.5,286047001.9,N
1549087795.3,286047003.3,N
1549087815.1,286047007.1,Y
1549087835.9,286047004.5,P
1549087855.7,286047003.3,N
1549087875.6,286047003.2,N
1549087895.4,286047003.5,N
1549087915.2,286047004.5,N
1549087935.1,286047005.3,N
1549087936.0,286047005.3,N
1549087955.8,286047003.4,N
1549087975.6,286047003.4,N
1549087995.5,286047001.7,N
1549088015.3,286047004.1,N
1549088035.2,286047003.2,N
1549088055.9,286047003.7,N
1549088075.7,286047002.1,N
1549088095.6,286047002.8,N
1549088115.4,286047002.5,N
1549088135.2,286047001.8,N
1549088155.1,286047004.4,Y
1549088156.0,286047004.4,P
1549088175.8,286046999.8,N
1549088195.7,286046998.3,N
1549088215.5,286046998.7,N
1549088235.3,286046997.4,N
1549088255.2,286046997.3,N
1549088275.0,286046997.1,N
1549088275.9,286046997.1,N
1549088295.7,286046999.1,N
1549088315.6,286046997.3,N
1549088335.4,286046997.7,N
1549088355.3,286046999.5,N
1549088375.1,286046998.7,N
1549088376.0,286046998.7,N
1549088395.8,286047000.6,N
1549088415.7,286047000.5,N
1549088435.5,286046998.1,N
1549088455.3,286047000.5,N
1549088475.2,286046998.5,N
1549088495.0,286046999.0,N
1549088495.9,286046999.0,N
1549088515.8,286046996.5,N
1549088535.6,286046997.2,N
1549088555.4,286046994.9,N
1549088575.3,286046995.9,N
1549088595.1,286046993.9,Y
1549088615.8,286046996.1,P
1549088635.7,286046995.7,P
1549088655.5,286046994.5,P
1549088675.4,286046994.0,Y
1549088695.2,286046997.0,P
1549088715.0,286046997.0,P
1549088715.9,286046997.0,P
1549088735.8,286046997.0,Y
1549088755.6,286047002.2,P
1549088775.4,286047001.3,N
1549088795.3,286047006.0,N
1549088815.1,286047003.4,N
1549088835.9,286047002.9,N
1549088855.7,286047005.8,N
1549088875.5,286047002.9,N
1549088895.4,286047005.3,N
1549088915.2,286047004.9,N
1549088935.0,286047004.7,N
1549088935.9,286047004.7,N
1549088955.8,286047004.6,N
1549088975.6,286047007.6,Y
1549088995.5,286047002.4,P
1549089015.3,286047002.4,P
1549089035.1,286047001.3,N
1549089055.9,286047005.6,Y
1549089075.7,286047001.4,P
1549089095.5,286047004.3,P
1549089115.4,286047004.4,P
1549089135.2,286047004.1,Y
1549089155.1,286047001.8,P
1549089156.0,286047001.8,N
1549089175.8,286047004.4,P
1549089195.6,286047001.8,N
1549089215.5,286047003.9,Y
1549089235.3,286047000.6,P
1549089255.1,286046998.4,N
1549089275.9,286046999.4,N
1549089295.7,286046997.8,N
1549089315.6,286046999.5,N
1549089335.4,286046997.3,N
1549089355.2,286046993.4,Y
1549089375.1,286046995.8,P
1549089376.0,286046995.8,N
1549089395.8,286046993.3,P
1549089415.6,286046994.9,N
1549089435.5,286046994.9,N
1549089455.3,286046995.0,N
1549089475.2,286046996.8,N
1549089495.9,286046997.8,N
1549089515.7,286046993.7,Y
1549089535.6,286046998.5,P
1549089555.4,286046998.2,N
1549089575.2,286047000.9,N
1549089595.1,286047002.7,N
1549089596.0,286047002.7,N
1549089615.8,286047001.9,N
1549089635.7,286047002.7,N
1549089655.5,286047000.5,N
1549089675.3,286047000.0,N
1549089695.2,286046999.3,N
1549089715.0,286046997.3,N
1549089715.9,286046997.3,N
1549089735.8,286046995.8,N
1549089755.6,286046993.6,N
1549089775.4,286046994.5,N
1549089795.3,286046993.8,N
1549089815.1,286046993.5,N
1549089835.8,286046994.6,N
1549089855.7,286046993.9,N
1549089875.5,286046994.5,N
1549089895.4,286046993.9,N
1549089915.2,286046993.8,N
1549089935.0,286046993.8,N
1549089935.9,286046993.8,N
1549089955.8,286046994.1,N
1549089975.6,286046994.6,N
1549089995.4,286046994.3,N
1549090015.3,286046996.2,N
1549090035.1,286046993.7,N
1549090055.9,286046993.3,N
1549090075.7,286046995.5,N
1549090095.5,286046997.5,N
1549090115.4,286046995.6,N
1549090135.2,286046997.5,N
1549090155.0,286046996.7,N
1549090155.9,286046996.7,N
1549090175.8,286046996.9,N
1549090195.6,286046995.5,N
1549090215.5,286046996.6,N
1549090235.3,286046996.5,N
1549090255.1,286046996.9,N
1549090275.9,286046997.8,N
1549090295.7,286046997.2,N
1549090315.5,286046997.1,N
1549090335.4,286046998.8,N
1549090355.2,286046999.6,N
1549090375.1,286046996.9,N
1549090376.0,286046996.9,N
1549090395.8,286046996.8,N
1549090415.6,286046997.0,N
1549090435.5,286046998.8,N
1549090455.3,286047000.4,N
1549090475.1,286047000.2,N
1549090495.9,286047001.0,N
1549090515.7,286047002.3,N
1549090535.6,286047001.3,N
1549090555.4,286047003.1,N
1549090575.2,286047001.9,N
1549090595.1,286047004.4,N
1549090596.0,286047004.4,N
1549090615.8,286047005.4,N
1549090635.6,286047003.5,N
1549090655.5,286047002.0,N
1549090675.3,286047002.2,N
1549090695.2,286047001.9,N
1549090715.9,286047000.4,N
1549090735.7,286046999.0,N
1549090755.6,286046998.9,N
1549090775.4,286046998.7,N
1549090795.2,286046995.9,N
